FW93366 Weather Reports


time (UTC)temp
C
wind
direction
speed
KPH
gust
KPH
rain 1hr
cm
rain 24hr
cm
rain mn
cm
humidity
%
barometer
mb
20260901091612 16 0 0.0 3.2 0.00 0.00 0.00 39 1014.4
20260901090100 16 0 0.0 6.4 0.00 0.00 0.00 37 1014.1
20260901084557 16 0 0.0 3.2 0.00 0.00 0.00 33 1014.2
20260901083057 16 0 0.0 0.0 0.00 0.00 0.00 42 1014.3
20260901081549 16 0 0.0 0.0 0.00 0.00 0.00 39 1014.5
20260901080057 16 0 0.0 4.8 0.00 0.00 0.00 43 1014.4
20260901074549 16 105 0.0 4.8 0.00 0.00 0.00 44 1014.5
20260901073059 16 0 0.0 4.8 0.00 0.00 0.00 41 1014.4
20260901071554 16 0 0.0 6.4 0.00 0.00 0.00 41 1014.3
20260901070057 17 0 0.0 3.2 0.00 0.00 0.00 40 1014.2
20260901064600 17 11 1.6 6.4 0.00 0.00 0.00 41 1014.3
20260901063102 17 0 0.0 8.0 0.00 0.00 0.00 39 1014.5
20260901061552 18 0 0.0 0.0 0.00 0.00 0.00 34 1014.4
20260901060059 19 0 0.0 4.8 0.00 0.00 0.00 32 1014.3
20260901054554 18 0 0.0 6.4 0.00 0.00 0.00 36 1014.5
20260901053119 18 0 0.0 14.5 0.00 0.00 0.00 38 1014.6
20260901051606 18 27 3.2 11.3 0.00 0.00 0.00 39 1014.6
20260901050059 19 108 0.0 6.4 0.00 0.00 0.00 38 1014.6
20260901044615 19 0 0.0 0.0 0.00 0.00 0.00 36 1014.6
20260901043102 19 0 0.0 3.2 0.00 0.00 0.00 37 1014.5
20260901041547 20 0 0.0 4.8 0.00 0.00 0.00 37 1014.5
20260901040058 20 0 1.6 9.7 0.00 0.00 0.00 37 1014.4
20260901034551 20 0 0.0 1.6 0.00 0.00 0.00 37 1014.1
20260901033048 21 0 0.0 3.2 0.00 0.00 0.00 36 1014.0
20260901031601 22 0 0.0 12.9 0.00 0.00 0.00 34 1013.9
20260901030057 22 326 1.6 9.7 0.00 0.00 0.00 31 1013.9
20260901024551 22 94 3.2 9.7 0.00 0.00 0.00 32 1013.8
20260901023052 23 206 6.4 25.7 0.00 0.00 0.00 30 1013.7
20260901021600 23 238 6.4 25.7 0.00 0.00 0.00 32 1013.5
20260901020048 23 296 11.3 25.7 0.00 0.00 0.00 33 1013.4
20260901014552 24 315 14.5 24.1 0.00 0.00 0.00 32 1013.2
20260901013053 25 277 4.8 17.7 0.00 0.00 0.00 31 1013.2
20260901011605 25 236 9.7 24.1 0.00 0.00 0.00 31 1013.1
20260901010049 26 213 9.7 19.3 0.00 0.00 0.00 31 1013.0
20260901004604 26 244 14.5 24.1 0.00 0.00 0.00 31 1013.0
20260901003052 27 207 6.4 20.9 0.00 0.00 0.00 28 1013.1
20260901001552 27 171 8.0 19.3 0.00 0.00 0.00 31 1013.1
20260901000059 27 221 9.7 30.6 0.00 0.00 0.00 30 1013.1
20260831234557 27 271 11.3 22.5 0.00 0.00 0.00 30 1013.0
20260831233053 27 216 12.9 27.4 0.00 0.00 0.00 30 1013.0
20260831231606 27 275 11.3 27.4 0.00 0.00 0.00 29 1013.1
20260831230101 27 263 9.7 27.4 0.00 0.00 0.00 26 1013.3
20260831224549 28 259 4.8 24.1 0.00 0.00 0.00 26 1013.2
20260831223104 28 244 6.4 22.5 0.00 0.00 0.00 24 1013.4
20260831221551 27 331 8.0 22.5 0.00 0.00 0.00 24 1013.7
20260831220051 27 273 8.0 25.7 0.00 0.00 0.00 24 1013.8
20260831214619 28 266 9.7 19.3 0.00 0.00 0.00 24 1014.0
20260831213105 28 267 4.8 22.5 0.00 0.00 0.00 24 1014.1
20260831211557 28 248 9.7 16.1 0.00 0.00 0.00 22 1014.3
20260831210052 28 275 6.4 17.7 0.00 0.00 0.00 23 1014.3
20260831204604 28 205 6.4 14.5 0.00 0.00 0.00 23 1014.5
20260831203059 28 248 3.2 12.9 0.00 0.00 0.00 22 1014.5
20260831201552 28 240 4.8 12.9 0.00 0.00 0.00 22 1014.7
20260831200053 28 352 1.6 6.4 0.00 0.00 0.00 21 1014.9
20260831194549 27 194 0.0 8.0 0.00 0.00 0.00 20 1015.1
20260831193053 26 24 1.6 6.4 0.00 0.00 0.00 23 1015.4
20260831191551 26 218 1.6 9.7 0.00 0.00 0.00 23 1015.6
20260831190115 26 259 1.6 8.0 0.00 0.00 0.00 24 1015.7
20260831184556 25 0 0.0 11.3 0.00 0.00 0.00 31 1015.9
20260831183100 25 347 0.0 4.8 0.00 0.00 0.00 32 1016.1
20260831181602 24 0 0.0 6.4 0.00 0.00 0.00 35 1016.3
20260831174549 22 0 0.0 0.0 0.00 0.00 0.00 41 1016.7
20260831173048 21 0 0.0 6.4 0.00 0.00 0.00 45 1016.7
20260831171558 20 0 0.0 3.2 0.00 0.00 0.00 44 1016.9
20260831170053 19 0 0.0 0.0 0.00 0.00 0.00 48 1016.8
20260831164601 18 0 0.0 6.4 0.00 0.00 0.00 51 1017.0
20260831163059 17 0 0.0 4.8 0.00 0.00 0.00 53 1017.1
20260831161554 17 260 0.0 4.8 0.00 0.00 0.00 57 1017.2
20260831160106 16 0 0.0 0.0 0.00 0.00 0.00 56 1017.2
20260831154624 15 0 0.0 1.6 0.00 0.00 0.00 63 1017.4
20260831153057 14 0 0.0 0.0 0.00 0.00 0.00 61 1017.4
20260831151553 13 0 0.0 0.0 0.00 0.00 0.00 65 1017.5
20260831150101 12 0 0.0 0.0 0.00 0.00 0.00 71 1017.5
20260831144559 10 0 0.0 0.0 0.00 0.00 0.00 75 1017.5
20260831143107 10 0 0.0 0.0 0.00 0.00 0.00 76 1017.4
20260831141553 9 0 0.0 0.0 0.00 0.00 0.00 77 1017.2
20260831140050 8 0 0.0 0.0 0.00 0.00 0.00 79 1017.1
20260831134548 8 0 0.0 0.0 0.00 0.00 0.00 80 1017.0
20260831133059 8 0 0.0 0.0 0.00 0.00 0.00 81 1017.0
20260831131554 8 0 0.0 0.0 0.00 0.00 0.00 81 1016.9
20260831130101 8 0 0.0 0.0 0.00 0.00 0.00 81 1017.0
20260831124558 8 0 0.0 0.0 0.00 0.00 0.00 81 1016.8
20260831123055 8 0 0.0 0.0 0.00 0.00 0.00 80 1017.0
20260831121551 8 0 0.0 0.0 0.00 0.00 0.00 79 1016.9
20260831120059 9 0 0.0 0.0 0.00 0.00 0.00 77 1016.9
20260831114600 10 0 0.0 0.0 0.00 0.00 0.00 74 1017.0
20260831113109 10 0 0.0 0.0 0.00 0.00 0.00 75 1017.1
20260831111601 10 0 0.0 0.0 0.00 0.00 0.00 74 1017.1
20260831110048 10 0 0.0 0.0 0.00 0.00 0.00 74 1017.1
20260831104558 10 0 0.0 0.0 0.00 0.00 0.00 74 1017.1
20260831103101 10 0 0.0 0.0 0.00 0.00 0.00 74 1017.2
20260831101552 11 0 0.0 0.0 0.00 0.00 0.00 72 1017.3
20260831100047 12 0 0.0 0.0 0.00 0.00 0.00 71 1017.2
20260831094559 12 0 0.0 0.0 0.00 0.00 0.00 70 1017.1
20260831093054 12 0 0.0 0.0 0.00 0.00 0.00 68 1017.2